Wrangell, AK

7:27 AM AKDT on June 22, 2017 (GMT -0800)
Wrangell

Weather History for PAWG - December, 2011

Change the Weather History Date:

Monday, December 26, 2011

  Actual Average Record
Temperature  
Mean Temperature 37 °F -  
Max Temperature 39 °F 38 °F 59 °F (1996)
Min Temperature 35 °F 28 °F 5 °F (1955)
Degree Days  
Heating Degree Days 28    
Moisture  
Dew Point 32 °F    
Average Humidity 79    
Maximum Humidity 87    
Minimum Humidity 65    
Precipitation  
Precipitation 0.00 in - - ()
Sea Level Pressure  
Sea Level Pressure 29.38 in    
Wind  
Wind Speed 19 mph (SE)    
Max Wind Speed 31 mph    
Max Gust Speed 41 mph    
Visibility 8 miles    
Events      
Averages and records for this station are not official NWS values.
T = Trace of Precipitation, MM = Missing Value Source: NWS Daily Summary

Daily Weather History Graph

Daily Weather History Graph

Search for Another Location

Airport or City:

Trip Planner

Search our weather history database for the weather conditions in past years. The results will help you decide how hot, cold, wet, or windy it might be!

Date:

Astronomy

Dec. 26, 2011 Rise Set
Actual Time 8:24 AM AKST 3:16 PM AKST
Civil Twilight 7:35 AM AKST 4:04 PM AKST
Nautical Twilight 6:45 AM AKST 4:54 PM AKST
Astronomical Twilight 5:59 AM AKST 5:40 PM AKST
Moon 9:24 AM AKST (12/26) 6:20 PM AKST (12/26)
Length of Visible Light 8h 28m
Length of Day
6h 51m
Waxing Crescent, 6% of the Moon is Illuminated
Dec 26
Waxing Crescent
Dec 31
First Quarter
Jan 8
Full
Jan 16
Last Quarter
Jan 22
New

Hourly Weather History & Observations

Time (AKST) Temp. Windchill Dew Point Humidity Pressure Visibility Wind Dir Wind Speed Gust Speed Precip Events Conditions
12:16 AM 35.6 °F 27.5 °F 28.4 °F 75% 29.83 in 10.0 mi East 11.5 mph - N/A   Mostly Cloudy
12:36 AM 35.6 °F 27.5 °F 28.4 °F 75% 29.81 in 10.0 mi East 11.5 mph - N/A   Overcast
12:56 AM 35.6 °F 29.2 °F 28.4 °F 75% 29.79 in 10.0 mi ENE 8.1 mph - N/A   Overcast
1:16 AM 35.6 °F 25.9 °F 24.8 °F 65% 29.77 in 10.0 mi SE 16.1 mph 24.2 mph N/A   Overcast
1:36 AM 35.6 °F 23.7 °F 26.6 °F 70% 29.74 in 10.0 mi SE 24.2 mph 28.8 mph N/A   Overcast
1:56 AM 35.6 °F 25.2 °F 26.6 °F 70% 29.75 in 8.0 mi SE 18.4 mph 24.2 mph N/A   Overcast
2:16 AM 35.6 °F 24.2 °F 28.4 °F 75% 29.73 in 9.0 mi SE 21.9 mph 26.5 mph N/A   Overcast
2:36 AM 35.6 °F 25.2 °F 26.6 °F 70% 29.71 in 9.0 mi ESE 18.4 mph 28.8 mph N/A   Overcast
2:56 AM 35.6 °F 24.0 °F 28.4 °F 75% 29.68 in 10.0 mi ESE 23.0 mph 29.9 mph N/A   Overcast
3:16 AM 35.6 °F 25.9 °F 30.2 °F 81% 29.66 in 9.0 mi East 16.1 mph - N/A   Overcast
3:36 AM 35.6 °F 25.5 °F 28.4 °F 75% 29.63 in 10.0 mi East 17.3 mph - N/A   Overcast
3:56 AM 35.6 °F 26.2 °F 30.2 °F 81% 29.60 in 10.0 mi East 15.0 mph - N/A   Overcast
4:16 AM 37.4 °F 27.8 °F 28.4 °F 70% 29.58 in 10.0 mi East 17.3 mph 21.9 mph N/A   Overcast
4:36 AM 37.4 °F 26.4 °F 28.4 °F 70% 29.54 in 10.0 mi ESE 23.0 mph 28.8 mph N/A   Overcast
4:56 AM 37.4 °F 26.6 °F 30.2 °F 75% 29.52 in 10.0 mi ESE 21.9 mph 28.8 mph N/A   Overcast
5:16 AM 35.6 °F 24.0 °F 30.2 °F 81% 29.49 in 8.0 mi ESE 23.0 mph 35.7 mph N/A   Overcast
5:36 AM 35.6 °F 24.0 °F 30.2 °F 81% 29.47 in 7.0 mi ESE 23.0 mph 36.8 mph N/A   Overcast
5:56 AM 37.4 °F 25.9 °F 30.2 °F 75% 29.45 in 7.0 mi ESE 25.3 mph 39.1 mph N/A   Overcast
6:16 AM 37.4 °F 25.6 °F 30.2 °F 75% 29.43 in 7.0 mi SE 26.5 mph 35.7 mph N/A   Overcast
6:36 AM 37.4 °F 25.6 °F 32.0 °F 81% 29.41 in 7.0 mi SE 26.5 mph 34.5 mph N/A   Overcast
6:56 AM 37.4 °F 25.9 °F 32.0 °F 81% 29.38 in 7.0 mi ESE 25.3 mph 34.5 mph N/A   Overcast
7:16 AM 37.4 °F 25.9 °F 32.0 °F 81% 29.36 in 7.0 mi SE 25.3 mph 34.5 mph N/A   Overcast
7:36 AM 37.4 °F 25.2 °F 32.0 °F 81% 29.33 in 7.0 mi SE 28.8 mph 41.4 mph N/A   Overcast
7:56 AM 37.4 °F 25.4 °F 30.2 °F 75% 29.32 in 7.0 mi SE 27.6 mph 39.1 mph N/A   Overcast
8:16 AM 37.4 °F 24.8 °F 33.8 °F 87% 29.30 in 7.0 mi SE 31.1 mph 36.8 mph N/A   Overcast
8:36 AM 37.4 °F 25.4 °F 32.0 °F 81% 29.30 in 7.0 mi ESE 27.6 mph 38.0 mph N/A   Overcast
8:56 AM 37.4 °F 25.6 °F 32.0 °F 81% 29.30 in 7.0 mi SE 26.5 mph 35.7 mph N/A   Overcast
9:16 AM 39.2 °F 28.3 °F 33.8 °F 81% 29.27 in 7.0 mi SE 25.3 mph 33.4 mph N/A   Overcast
9:36 AM 39.2 °F 27.6 °F 33.8 °F 81% 29.25 in 7.0 mi ESE 28.8 mph 40.3 mph N/A   Overcast
9:56 AM 39.2 °F 27.8 °F 33.8 °F 81% 29.25 in 7.0 mi SE 27.6 mph 35.7 mph N/A   Overcast
10:16 AM 39.2 °F 28.3 °F 33.8 °F 81% 29.25 in 7.0 mi ESE 25.3 mph 34.5 mph N/A   Overcast
10:36 AM 39.2 °F 29.8 °F 35.6 °F 87% 29.25 in 7.0 mi SE 18.4 mph 26.5 mph N/A   Overcast
10:56 AM 39.2 °F 28.5 °F 33.8 °F 81% 29.23 in 7.0 mi ESE 24.2 mph 36.8 mph N/A   Overcast
11:16 AM 39.2 °F 28.7 °F 33.8 °F 81% 29.22 in 7.0 mi ESE 23.0 mph 31.1 mph N/A   Overcast
11:36 AM 39.2 °F 29.6 °F 35.6 °F 87% 29.22 in 7.0 mi ESE 19.6 mph 27.6 mph N/A   Overcast
11:56 AM 39.2 °F 28.7 °F 33.8 °F 81% 29.21 in 7.0 mi SE 23.0 mph 28.8 mph N/A   Overcast
12:16 PM 39.2 °F 28.7 °F 33.8 °F 81% 29.19 in 7.0 mi ESE 23.0 mph 32.2 mph N/A   Overcast
12:36 PM 39.2 °F 28.0 °F 35.6 °F 87% 29.18 in 7.0 mi ESE 26.5 mph 31.1 mph N/A   Overcast
12:56 PM 39.2 °F 29.0 °F 35.6 °F 87% 29.17 in 7.0 mi ESE 21.9 mph 33.4 mph N/A   Overcast
1:16 PM 39.2 °F 28.3 °F 33.8 °F 81% 29.16 in 7.0 mi SE 25.3 mph 31.1 mph N/A   Overcast
1:36 PM 39.2 °F 28.0 °F 33.8 °F 81% 29.15 in 7.0 mi SE 26.5 mph 33.4 mph N/A   Overcast
1:56 PM 39.2 °F 28.5 °F 33.8 °F 81% 29.15 in 7.0 mi ESE 24.2 mph 32.2 mph N/A   Overcast
2:16 PM 39.2 °F 28.7 °F 33.8 °F 81% 29.14 in 7.0 mi SE 23.0 mph 34.5 mph N/A   Overcast
2:36 PM 37.4 °F 27.2 °F 33.8 °F 87% 29.14 in 7.0 mi SE 19.6 mph 27.6 mph N/A   Overcast
2:56 PM 39.2 °F 28.5 °F 33.8 °F 81% 29.12 in 7.0 mi SE 24.2 mph - N/A   Overcast
3:16 PM 39.2 °F 28.7 °F 33.8 °F 81% 29.12 in 7.0 mi SE 23.0 mph 28.8 mph N/A   Overcast
3:36 PM 39.2 °F 29.6 °F 33.8 °F 81% 29.14 in 7.0 mi ESE 19.6 mph 27.6 mph N/A   Overcast
3:56 PM 39.2 °F 33.6 °F 33.8 °F 81% 29.18 in 7.0 mi SSE 8.1 mph 23.0 mph N/A   Overcast
4:16 PM 37.4 °F 32.1 °F 33.8 °F 87% 29.20 in 7.0 mi SW 6.9 mph - N/A   Overcast
4:36 PM 37.4 °F 31.4 °F 33.8 °F 87% 29.22 in 7.0 mi SSW 8.1 mph - N/A   Overcast
4:56 PM 37.4 °F 32.1 °F 33.8 °F 87% 29.24 in 7.0 mi South 6.9 mph - N/A   Overcast
5:16 PM 37.4 °F 28.5 °F 32.0 °F 81% 29.25 in 7.0 mi South 15.0 mph 23.0 mph N/A   Overcast
5:36 PM 37.4 °F 29.3 °F 32.0 °F 81% 29.27 in 7.0 mi SSW 12.7 mph 18.4 mph N/A   Overcast
5:56 PM 37.4 °F 32.1 °F 30.2 °F 75% 29.30 in 7.0 mi SSW 6.9 mph - N/A   Overcast
6:16 PM 37.4 °F 31.4 °F 30.2 °F 75% 29.32 in 7.0 mi WSW 8.1 mph - N/A   Overcast
6:36 PM 35.6 °F 30.7 °F 30.2 °F 81% 29.33 in 7.0 mi West 5.8 mph - N/A   Overcast
6:56 PM 37.4 °F 30.8 °F 28.4 °F 70% 29.34 in 10.0 mi West 9.2 mph - N/A   Overcast
7:16 PM 37.4 °F 30.3 °F 28.4 °F 70% 29.35 in 10.0 mi WSW 10.4 mph 16.1 mph N/A   Overcast
7:36 PM 37.4 °F 33.8 °F 26.6 °F 65% 29.37 in 10.0 mi WSW 4.6 mph - N/A   Overcast
7:56 PM 35.6 °F 29.2 °F 28.4 °F 75% 29.39 in 3.0 mi West 8.1 mph - N/A   Overcast
8:16 PM 33.8 °F 28.6 °F 28.4 °F 81% 29.40 in 3.0 mi WNW 5.8 mph - N/A   Overcast
8:36 PM 35.6 °F 31.7 °F 26.6 °F 70% 29.42 in 3.0 mi SSE 4.6 mph - N/A   Overcast
8:56 PM 33.8 °F 25.8 °F 24.8 °F 70% 29.44 in 3.0 mi WSW 10.4 mph 23.0 mph N/A   Overcast
9:16 PM 33.8 °F 25.3 °F 26.6 °F 75% 29.46 in 3.0 mi South 11.5 mph 18.4 mph N/A   Overcast
9:36 PM 33.8 °F 25.8 °F 24.8 °F 70% 29.47 in 3.0 mi SSW 10.4 mph 17.3 mph N/A   Overcast
9:56 PM 33.8 °F 25.8 °F 24.8 °F 70% 29.48 in 10.0 mi SSW 10.4 mph - N/A   Overcast
10:16 PM 32.0 °F 22.5 °F 26.6 °F 80% 29.50 in 10.0 mi West 12.7 mph 19.6 mph N/A   Overcast
10:36 PM 30.2 °F - 28.4 °F 93% 29.51 in 10.0 mi Calm Calm - N/A   Overcast
10:56 PM 32.0 °F 27.5 °F 26.6 °F 80% 29.52 in 10.0 mi South 4.6 mph - N/A   Overcast
11:16 PM 32.0 °F - 26.6 °F 80% 29.53 in 1.8 mi Calm Calm - N/A   Overcast
11:36 PM 32.0 °F 26.4 °F 26.6 °F 80% 29.55 in 9.0 mi WSW 5.8 mph - N/A   Overcast
11:56 PM 32.0 °F 24.2 °F 26.6 °F 80% 29.56 in 7.0 mi SSE 9.2 mph - N/A   Mostly Cloudy